Hourly Data Report for December 06, 2006

TORONTO CITY
ONTARIO

43°40'00.000" N
79°24'00.000" W
112.50 m
6158355
71508
XTO

Download Data

Hourly Data (December 2006)
Hourly Data Report for December 6, 2006
TIME
LST
Temp Definition
°C
Dew Point Definition
°C
Rel Hum Definition
%
Precip. Amount Definition
mm

Wind Dir Definition
10's deg

Wind Spd Definition
km/h
Visibility Definition
km
Stn Press Definition
kPa
Hmdx Definition


Wind Chill Definition


Weather Definition


00:00 -0.5 -4.6 74   LegendMM LegendMM   100.79     LegendNANA
01:00 0.3 -4.1 72   LegendMM LegendMM   100.65     LegendNANA
02:00 1.0 -3.6 71   LegendMM LegendMM   100.52     LegendNANA
03:00 1.5 -3.6 69   LegendMM LegendMM   100.39     LegendNANA
04:00 2.0 -3.0 69   LegendMM LegendMM   100.24     LegendNANA
05:00 2.5 -2.6 69   LegendMM LegendMM   100.09     LegendNANA
06:00 3.0 -2.7 66   LegendMM LegendMM   99.98     LegendNANA
07:00 3.4 -2.5 65   LegendMM LegendMM   99.88     LegendNANA
08:00 3.7 -1.7 68   LegendMM LegendMM   99.81     LegendNANA
09:00 4.1 -1.0 69   LegendMM LegendMM   99.72     LegendNANA
10:00 4.3 -0.8 69   LegendMM LegendMM   99.75     LegendNANA
11:00 4.0 -0.1 75   LegendMM LegendMM   99.71     LegendNANA
12:00 4.0 1.0 81   LegendMM LegendMM   99.64     LegendNANA
13:00 4.3 1.5 82   LegendMM LegendMM   99.60     LegendNANA
14:00 4.3 1.5 82   LegendMM LegendMM   99.58     LegendNANA
15:00 3.9 1.7 86   LegendMM LegendMM   99.57     LegendNANA
16:00 3.9 1.3 83   LegendMM LegendMM   99.61     LegendNANA
17:00 4.0 0.8 80   LegendMM LegendMM   99.64     LegendNANA
18:00 4.2 0.4 76   LegendMM LegendMM   99.68     LegendNANA
19:00 4.3 0.2 75   LegendMM LegendMM   99.68     LegendNANA
20:00 4.2 0.1 75   LegendMM LegendMM   99.69     LegendNANA
21:00 4.2 0.0 74   LegendMM LegendMM   99.65     LegendNANA
22:00 3.9 0.2 77   LegendMM LegendMM   99.65     LegendNANA
23:00 2.4 0.8 89   LegendMM LegendMM   99.68     LegendNANA

Notes on Data Quality.

Legend

  • E = Estimated
  • M = Missing
  • NA = Not Available*
  • [empty] = Indicates an unobserved value
Date modified: